[[{"header":{"parameterUnit":"m.s-1","parameterCategory":1,"la1":30.2991,"la2":30.254,"lo1":-89.0895,"lo2":-89.0444,"dy":0.0017,"dx":0.0017,"nx":28,"ny":28,"refTime":"2024-07-02T03:00:00:Z","depth":0,"parameterNumber":2,"parameterNumberName":"U-component_of_WINDS"},"data":[0,0,0,0,0,0,0,0,0,0,0,0,0,0,0,0,0,0,0,0,0,0,0,0,0,0,0,0,0,0,0,0,0,0,0,0,0,0,0,0,0,0,0,0,0,0,0,0,0,0,0,0,0,0,0,0,0,0,-2.0219,-2.0219,0,-2.0202,-2.0202,-2.0201,-2.0189,-2.0189,-2.0189,-2.0189,-2.0171,-2.017,-2.017,0,0,0,0,0,0,0,0,0,0,0,0,0,-2.0242,-2.0241,-2.0219,-2.0219,-2.0219,-2.0202,-2.0202,-2.0201,-2.0189,-2.0189,-2.0189,-2.0189,-2.0171,-2.017,-2.017,0,0,0,0,0,0,0,0,0,0,0,0,0,-2.0229,-2.0241,-2.0219,-2.0211,-2.021,-2.0202,-2.0202,-2.0201,-2.0189,-2.0189,-2.0189,-2.0188,-2.0171,-2.017,-2.017,-2.0169,0,0,-2.0168,-2.0168,0,0,0,0,0,0,0,0,-2.023,-2.0228,-2.0212,-2.0211,-2.021,-2.0197,-2.0203,-2.0191,-2.0189,-2.0197,-2.0189,-2.0188,-2.018,-2.0178,-2.0175,-2.0168,-2.0168,-2.0168,-2.0168,-2.0167,-2.0167,0,0,0,0,0,0,0,-2.0231,-2.0229,-2.0212,-2.0212,-2.0211,-2.0208,-2.0206,-2.0201,-2.0189,-2.0196,-2.0195,-2.0193,-2.0179,-2.0176,-2.0175,-2.0167,-2.0168,-2.0167,-2.0167,-2.0167,-2.0159,-2.0159,0,0,0,0,0,0,-2.0233,-2.023,-2.0213,-2.0212,-2.022,-2.0207,-2.0205,-2.0202,-2.0189,-2.0187,-2.0193,-2.0193,-2.0177,-2.0175,-2.0174,-2.0172,-2.0167,-2.0167,-2.0166,-2.0159,-2.0159,-2.0159,0,0,0,0,0,0,-2.0233,-2.0232,-2.0214,-2.0221,-2.0218,-2.0207,-2.0203,-2.0201,-2.0198,-2.0187,-2.0185,-2.0192,-2.0177,-2.0175,-2.017,-2.0172,-2.0166,-2.0166,-2.0158,-2.0159,-2.0159,-2.0169,0,0,0,0,0,0,-2.0234,-2.0232,-2.0232,-2.0221,-2.0218,-2.021,-2.0203,-2.0201,-2.0197,-2.0196,-2.0186,-2.0184,-2.0177,-2.0171,-2.017,-2.0171,-2.0165,-2.0158,-2.0158,-2.0159,-2.0169,-2.017,-2.0171,0,0,0,0,0,-2.0235,-2.0235,-2.0232,-2.023,-2.0217,-2.0211,-2.0209,-2.02,-2.0197,-2.0197,-2.019,-2.0184,-2.0172,-2.0171,-2.0169,-2.017,-2.0158,-2.0158,-2.0159,-2.0168,-2.0169,-2.017,0,0,0,0,0,0,-2.0247,-2.0234,-2.0229,-2.0226,-2.022,-2.0208,-2.0208,-2.0202,-2.0196,-2.0195,-2.0185,-2.0183,-2.018,-2.0174,-2.0174,-2.0169,-2.0164,-2.0164,-2.0172,-2.0173,-2.0174,-2.0175,-2.0165,0,0,0,0,0,-2.0249,-2.0245,-2.0233,-2.0232,-2.0229,-2.0219,-2.0215,-2.021,-2.0202,-2.0199,-2.0192,-2.0185,-2.0179,-2.0176,-2.0171,-2.0168,-2.0165,-2.0168,-2.0168,-2.0169,-2.0169,-2.0167,-2.0168,-2.016,-2.016,-2.016,0,0,-2.0253,-2.0246,-2.0244,-2.0234,-2.0228,-2.0224,-2.0216,-2.0212,-2.0209,-2.0199,-2.0194,-2.0188,-2.018,-2.0176,-2.0174,-2.0172,-2.0171,-2.017,-2.017,-2.017,-2.0167,-2.0168,-2.0169,-2.016,-2.016,-2.016,0,0,-2.0259,-2.0253,-2.0251,-2.0245,-2.0236,-2.023,-2.0229,-2.0219,-2.0215,-2.021,-2.0202,-2.0198,-2.0189,-2.0183,-2.0179,-2.0182,-2.0176,-2.0181,-2.0185,-2.0183,-2.0184,-2.0185,-2.0185,-2.0186,-2.0181,-2.0181,-2.0181,0,-2.0266,-2.0259,-2.025,-2.0246,-2.0242,-2.0233,-2.023,-2.0225,-2.0215,-2.0212,-2.021,-2.0198,-2.0191,-2.0186,-2.0187,-2.0184,-2.0183,-2.0182,-2.0185,-2.0185,-2.0185,-2.0186,-2.0186,-2.0181,-2.0181,-2.0181,-2.0181,0,-2.0267,-2.0262,-2.0262,-2.0252,-2.0248,-2.0245,-2.0235,-2.0232,-2.0227,-2.022,-2.0215,-2.0207,-2.02,-2.0198,-2.0193,-2.0192,-2.0191,-2.0187,-2.0182,-2.0187,-2.0187,-2.0188,-2.0182,-2.0182,-2.0182,-2.0182,0,0,-2.0279,-2.0265,-2.0265,-2.026,-2.025,-2.0246,-2.0242,-2.0235,-2.0232,-2.0226,-2.0222,-2.0214,-2.021,-2.0206,-2.02,-2.0198,-2.0201,-2.0194,-2.0194,-2.0195,-2.0199,-2.0202,-2.0202,-2.0197,-2.0197,-2.0197,-2.0199,0,-2.0283,-2.0276,-2.0268,-2.0264,-2.0259,-2.025,-2.0247,-2.024,-2.0234,-2.023,-2.0223,-2.0218,-2.0213,-2.021,-2.0208,-2.0201,-2.0201,-2.0201,-2.0193,-2.0193,-2.0195,-2.0202,-2.0205,-2.0208,-2.02,-2.02,-2.02,0,-2.0286,-2.028,-2.0275,-2.0265,-2.0263,-2.026,-2.0253,-2.0248,-2.024,-2.0236,-2.0231,-2.0224,-2.022,-2.0216,-2.021,-2.0209,-2.0206,-2.0202,-2.0202,-2.0201,-2.0196,-2.0201,-2.0209,-2.0209,-2.02,-2.02,-2.02,0,-2.0295,-2.0286,-2.0281,-2.0278,-2.0266,-2.0264,-2.0259,-2.0251,-2.0247,-2.024,-2.0238,-2.0231,-2.0227,-2.0222,-2.0213,-2.0212,-2.0208,-2.0203,-2.0204,-2.0204,-2.0203,-2.0203,-2.021,-2.0202,-2.0202,-2.0202,-2.0202,0,-2.03,-2.0297,-2.0285,-2.0282,-2.0279,-2.027,-2.0267,-2.0261,-2.0254,-2.025,-2.0242,-2.0238,-2.0228,-2.0223,-2.0217,-2.0212,-2.0211,-2.0207,-2.0205,-2.0207,-2.0208,-2.0204,-2.0204,-2.0202,-2.0202,-2.0202,-2.0202,0,-2.0309,-2.0301,-2.0295,-2.0285,-2.0282,-2.028,-2.0271,-2.0268,-2.0261,-2.0256,-2.0255,-2.0245,-2.0238,-2.023,-2.0221,-2.0217,-2.0213,-2.021,-2.0215,-2.0214,-2.0215,-2.0215,-2.022,-2.022,-2.0212,-2.0212,-2.0212,0,-2.0312,-2.031,-2.0299,-2.0296,-2.0291,-2.0286,-2.0282,-2.0273,-2.0269,-2.026,-2.0258,-2.0251,-2.0245,-2.0235,-2.0227,-2.022,-2.0217,-2.0219,-2.0216,-2.0218,-2.0217,-2.0217,-2.0216,-2.022,-2.022,-2.022,-2.022,0,-2.0319,-2.0315,-2.0309,-2.0302,-2.0297,-2.0291,-2.0285,-2.0283,-2.0273,-2.0268,-2.0262,-2.0257,-2.0248,-2.0241,-2.0234,-2.0228,-2.0222,-2.0221,-2.0221,-2.0223,-2.0226,-2.0224,-2.0217,-2.0221,-2.0221,-2.0221,-2.0221,-2.0221,-2.0324,-2.0322,-2.0314,-2.0308,-2.0302,-2.0296,-2.0293,-2.0286,-2.0281,-2.0273,-2.0268,-2.0261,-2.0253,-2.0242,-2.0237,-2.0232,-2.023,-2.0229,-2.0229,-2.0229,-2.0229,-2.0227,-2.023,-2.023,-2.023,-2.023,-2.023,0,-2.033,-2.0325,-2.0319,-2.031,-2.0306,-2.0301,-2.0294,-2.029,-2.0284,-2.0278,-2.0272,-2.0264,-2.0258,-2.0249,-2.0242,-2.0239,-2.0236,-2.0238,-2.0237,-2.0236,-2.0232,-2.0233,-2.024,-2.024,-2.024,-2.024,-2.024,-2.024,-2.0332,-2.0328,-2.0323,-2.0315,-2.031,-2.0303,-2.03,-2.0294,-2.0288,-2.028,-2.0275,-2.0269,-2.0262,-2.0254,-2.0247,-2.0245,-2.0243,-2.0245,-2.0241,-2.0237,-2.0237,-2.0236,-2.0236,-2.0244,-2.0244,-2.0246,-2.0246,-2.0246]},{"header":{"parameterUnit":"m.s-1","parameterCategory":1,"la1":30.2991,"la2":30.254,"lo1":-89.0895,"lo2":-89.0444,"dy":0.0017,"dx":0.0017,"nx":28,"ny":28,"refTime":"2024-07-02T03:00:00:Z","depth":0,"parameterNumber":3,"parameterNumberName":"V-component_of_WINDS"},"data":[0,0,0,0,0,0,0,0,0,0,0,0,0,0,0,0,0,0,0,0,0,0,0,0,0,0,0,0,0,0,0,0,0,0,0,0,0,0,0,0,0,0,0,0,0,0,0,0,0,0,0,0,0,0,0,0,0,0,-1.0156,-1.0156,0,-1.0122,-1.0122,-1.0121,-1.0099,-1.0099,-1.0099,-1.0099,-1.006,-1.006,-1.0059,0,0,0,0,0,0,0,0,0,0,0,0,0,-1.0199,-1.0198,-1.0156,-1.0156,-1.0155,-1.0122,-1.0122,-1.0121,-1.0099,-1.0099,-1.0099,-1.0099,-1.0061,-1.006,-1.0059,0,0,0,0,0,0,0,0,0,0,0,0,0,-1.0174,-1.0198,-1.0156,-1.014,-1.0139,-1.0122,-1.0122,-1.0121,-1.0099,-1.0099,-1.0099,-1.0099,-1.0061,-1.006,-1.0059,-1.0054,0,0,-1.0054,-1.0054,0,0,0,0,0,0,0,0,-1.0175,-1.0172,-1.0143,-1.0141,-1.0139,-1.0115,-1.0123,-1.0098,-1.0099,-1.0114,-1.0099,-1.0099,-1.0078,-1.0076,-1.007,-1.0052,-1.0051,-1.0054,-1.0053,-1.0053,-1.0052,0,0,0,0,0,0,0,-1.0177,-1.0174,-1.0143,-1.0143,-1.014,-1.0134,-1.013,-1.0118,-1.0098,-1.0113,-1.0111,-1.0108,-1.0077,-1.0071,-1.0069,-1.005,-1.0054,-1.0053,-1.0052,-1.0052,-1.0026,-1.0026,0,0,0,0,0,0,-1.0182,-1.0175,-1.0144,-1.0142,-1.0157,-1.0133,-1.0129,-1.0123,-1.0098,-1.0094,-1.0108,-1.0107,-1.0073,-1.007,-1.0067,-1.006,-1.0053,-1.0052,-1.0051,-1.0026,-1.0026,-1.0027,0,0,0,0,0,0,-1.0183,-1.0179,-1.0145,-1.0158,-1.0153,-1.0133,-1.0126,-1.0122,-1.0116,-1.0094,-1.009,-1.0105,-1.0073,-1.0069,-1.0058,-1.0058,-1.0051,-1.005,-1.0026,-1.0026,-1.0026,-1.0046,0,0,0,0,0,0,-1.0184,-1.018,-1.0179,-1.0158,-1.0153,-1.0137,-1.0126,-1.0122,-1.0114,-1.0112,-1.0091,-1.0087,-1.0073,-1.006,-1.0056,-1.0056,-1.0049,-1.0026,-1.0026,-1.0026,-1.0045,-1.0047,-1.0048,0,0,0,0,0,-1.0186,-1.0185,-1.0179,-1.0175,-1.0151,-1.0137,-1.0134,-1.0119,-1.0114,-1.0112,-1.0098,-1.0087,-1.0059,-1.0059,-1.0055,-1.0054,-1.0026,-1.0026,-1.0026,-1.0044,-1.0046,-1.0048,0,0,0,0,0,0,-1.0205,-1.0182,-1.0175,-1.0168,-1.0155,-1.0134,-1.0131,-1.0122,-1.0109,-1.0108,-1.0088,-1.0083,-1.0074,-1.0063,-1.0063,-1.0048,-1.0041,-1.004,-1.0056,-1.0058,-1.0059,-1.0062,-1.0048,0,0,0,0,0,-1.0209,-1.0201,-1.018,-1.0176,-1.017,-1.0152,-1.0145,-1.0135,-1.012,-1.0114,-1.0099,-1.0084,-1.0072,-1.0064,-1.0051,-1.0043,-1.0038,-1.0041,-1.0042,-1.0044,-1.0044,-1.0038,-1.0039,-1.0028,-1.0028,-1.0028,0,0,-1.0216,-1.0202,-1.0198,-1.018,-1.0168,-1.0159,-1.0147,-1.0138,-1.0131,-1.0112,-1.0101,-1.0089,-1.0071,-1.0061,-1.0056,-1.0052,-1.0045,-1.0044,-1.0045,-1.0044,-1.0038,-1.0039,-1.004,-1.0028,-1.0028,-1.0028,0,0,-1.0224,-1.0214,-1.0209,-1.0198,-1.0181,-1.0169,-1.0168,-1.0148,-1.014,-1.0128,-1.0114,-1.0104,-1.0083,-1.0071,-1.0062,-1.0065,-1.0054,-1.0061,-1.0069,-1.0064,-1.0065,-1.0065,-1.0066,-1.0067,-1.0061,-1.0061,-1.0061,0,-1.0235,-1.0222,-1.0207,-1.0199,-1.0191,-1.0174,-1.0168,-1.0158,-1.0138,-1.0132,-1.0128,-1.0101,-1.0088,-1.0074,-1.0075,-1.0068,-1.0066,-1.0064,-1.0066,-1.0067,-1.0067,-1.0067,-1.0068,-1.0062,-1.0062,-1.0062,-1.0062,0,-1.0236,-1.0227,-1.0225,-1.0207,-1.0198,-1.0191,-1.0174,-1.0167,-1.0157,-1.0144,-1.0132,-1.0116,-1.0099,-1.0095,-1.0085,-1.008,-1.0078,-1.007,-1.0062,-1.0069,-1.0069,-1.0069,-1.0064,-1.0063,-1.0063,-1.0063,0,0,-1.0256,-1.023,-1.0229,-1.0221,-1.0201,-1.0193,-1.0185,-1.017,-1.0164,-1.015,-1.0142,-1.0124,-1.0117,-1.0107,-1.0095,-1.009,-1.0093,-1.0082,-1.0082,-1.0085,-1.0085,-1.0092,-1.0092,-1.0085,-1.0085,-1.0085,-1.0087,0,-1.0262,-1.0248,-1.0233,-1.0224,-1.0215,-1.0198,-1.0191,-1.0177,-1.0165,-1.0155,-1.0141,-1.0129,-1.0121,-1.0114,-1.0109,-1.0094,-1.0092,-1.0093,-1.0076,-1.0076,-1.0082,-1.0092,-1.0099,-1.0101,-1.0087,-1.0087,-1.0087,0,-1.0267,-1.0255,-1.0245,-1.0225,-1.0221,-1.0215,-1.0199,-1.019,-1.0174,-1.0165,-1.0154,-1.0141,-1.013,-1.0123,-1.0107,-1.0108,-1.01,-1.0091,-1.0091,-1.0089,-1.0082,-1.009,-1.0101,-1.0102,-1.0087,-1.0087,-1.0087,0,-1.0282,-1.0264,-1.0255,-1.0248,-1.0225,-1.0221,-1.0211,-1.0195,-1.0186,-1.0172,-1.0166,-1.0151,-1.0142,-1.013,-1.0113,-1.011,-1.0098,-1.009,-1.009,-1.0091,-1.0089,-1.0089,-1.0099,-1.0084,-1.0084,-1.0084,-1.0084,0,-1.029,-1.0284,-1.0262,-1.0257,-1.0249,-1.0232,-1.0225,-1.0213,-1.0198,-1.0189,-1.0174,-1.0165,-1.0144,-1.0132,-1.0118,-1.0107,-1.0103,-1.0095,-1.0091,-1.0096,-1.0097,-1.0091,-1.009,-1.0084,-1.0084,-1.0084,-1.0084,0,-1.0307,-1.0291,-1.0281,-1.026,-1.0255,-1.025,-1.0232,-1.0225,-1.0212,-1.0201,-1.0198,-1.0177,-1.0163,-1.0144,-1.0124,-1.0115,-1.0104,-1.0099,-1.0111,-1.0108,-1.0109,-1.0109,-1.0115,-1.0115,-1.01,-1.01,-1.0101,0,-1.0313,-1.0308,-1.0287,-1.0281,-1.0272,-1.0261,-1.0253,-1.0235,-1.0227,-1.0207,-1.0203,-1.0188,-1.0175,-1.0152,-1.0134,-1.0118,-1.0112,-1.0115,-1.011,-1.0115,-1.0112,-1.0112,-1.0112,-1.0117,-1.0117,-1.0117,-1.0118,0,-1.0325,-1.0318,-1.0307,-1.0293,-1.0284,-1.0272,-1.0259,-1.0254,-1.0233,-1.0224,-1.021,-1.02,-1.018,-1.0164,-1.0146,-1.0134,-1.0122,-1.0119,-1.0119,-1.0124,-1.013,-1.0126,-1.0114,-1.0119,-1.0119,-1.0119,-1.0119,-1.0119,-1.0336,-1.0331,-1.0316,-1.0304,-1.0293,-1.0281,-1.0274,-1.026,-1.0249,-1.0231,-1.0221,-1.0207,-1.0189,-1.0164,-1.0152,-1.014,-1.0135,-1.0134,-1.0134,-1.0134,-1.0135,-1.0133,-1.0136,-1.0136,-1.0136,-1.0136,-1.0136,0,-1.0348,-1.0337,-1.0326,-1.0309,-1.03,-1.029,-1.0275,-1.0267,-1.0256,-1.0241,-1.0229,-1.0212,-1.0196,-1.0177,-1.0161,-1.0154,-1.0148,-1.015,-1.0151,-1.0148,-1.014,-1.0143,-1.0156,-1.0156,-1.0156,-1.0156,-1.0156,-1.0156,-1.0353,-1.0343,-1.0334,-1.0319,-1.0307,-1.0295,-1.0287,-1.0275,-1.0263,-1.0246,-1.0234,-1.0222,-1.0205,-1.0186,-1.0171,-1.0166,-1.016,-1.0164,-1.0157,-1.015,-1.0149,-1.0147,-1.0149,-1.0163,-1.0163,-1.0166,-1.0166,-1.0166]}]]